STARLINK-1290 (45392 NORAD) Tracking and Keplerian Element Data

This shows tracking and keplerian element data for the satellite.

Feedback or suggestion? Click here.




ElementValue
Catalog45392
NameSTARLINK-1290
Epoch Orbit1873
Epoch Day197.25001157
Epoch Year2020
RAAN49.8744
Inclination52.9778
Eccentricity0.0002068
Argument of Perigee94.4664
Mean Anonmoly270.7578
Mean Motion15.05604247
Decay Rate-0.00037674
L11 45392U 20019AJ 20197.25001157 -.00037674 00000-0 -25784-2 0 9992
L22 45392 52.9778 49.8744 0002068 94.4664 270.7578 15.05604247 18737

Live tracking and technical data element details for STARLINK-1290 (NORAD 45392). STARLINK-1290 can be tracked NOW for your location showing map with azimuth and elevation plus other details from your city location.

Track the satellite on the map from your city or location and see movement details for azimuth, elevation, latitude, longitude, range, height, and movement on the map or in text.







IsCatalogInMostPopularTable: catalog: 45392, numindb: 31
Update: records affected: 1



GetName: 45392 STARLINK-1290

Hit Count: updated at: Thu, 16 Jul 2020 03:45:21 GMT